User: anonymous   Login
Location: Unspecified
(0.0000°N, 0.0000°E)
Time: 18:09:22
(UTC+00:00)
Language:

ONEWEB-0536 - Orbit

View from above orbital plane
View from above orbital plane
View from above satellite
View from above satellite

Ground track
Ground track

The orbit is defined by the following mean orbital elements,

1 54148U          26145.41674644 +.00000000 +00000-0 +12444-3 0 00007
2 54148  87.9163 279.0001 0002264 125.7537 234.3807 13.20772565    06
Epoch (UTC): 25 May 2026 10:00:06
Eccentricity: 0.0002264
inclination: 87.9163°
perigee height: 1180 km
apogee height: 1183 km
right ascension of ascending node: 279.0001°
argument of perigee: 125.7537°
revolutions per day: 13.20772565
mean anomaly at epoch: 234.3807°

The dashed part of the orbit path shows where the satellite is in the earth's shadow,  

DLR